Regional Weather Roundup
Issued by NWS State College, PA

Home | Current Version | Previous Version | Graphics & Text | Print | Product List | Glossary Off
Versions: 1 2 3 4 5 6 7 8 9 10 11 12 13 14 15 16 17 18 19 20 21 22 23 24 25 26 27 28 29 30 31 32 33 34 35 36 37 38 39 40 41 42 43 44 45 46 47 48 49 50

000
ASUS41 KCTP 250710
RWRCTP

REGIONAL WEATHER ROUNDUP
NATIONAL WEATHER SERVICE STATE COLLEGE PA
300 AM EDT SUN SEP 25 2016

Note: "fair" indicates few or no clouds below 12,000 feet with no
significant weather and/or obstructions to visibility.

* = STATION THAT DOES NOT REPORT PRECIPITATION /E.G. RAIN...SNOW...ETC/
    THUNDER OR FOG.

PAZ002>004-007>009-013>016-020>023-029>032-250800-
WESTERN PENNSYLVANIA

CITY           SKY/WX    TMP DP  RH WIND       PRES   REMARKS
ERIE           CLEAR     50  39  66 SE5       30.23S
MEADVILLE      CLEAR     47  41  80 NE7       30.23S
FRANKLIN*        N/A     46  39  76 NE5       30.24S
NEW CASTLE     FAIR      48  47  96 CALM      30.22S
BEAVER COUNTY  NOT AVBL
BUTLER*        CLEAR     48  45  87 NE7       30.23S
PITTSBURGH INT CLEAR     54  48  80 N3        30.18S
PITTSBURGH     CLEAR     55  46  71 N5        30.18S
INDIANA*       CLEAR     50  48  93 CALM      30.23S
LATROBE        CLEAR     48  48 100 CALM      30.19F
WASHINGTON CO* CLEAR     48  46  93 CALM      30.19S
$$

PAZ004>006-010>012-017>019-024>028-033>037-041-042-045-046-049>053-250800-
CENTRAL PENNSYLVANIA

CITY           SKY/WX    TMP DP  RH WIND       PRES   REMARKS
BRADFORD       CLEAR     38  38 100 CALM      30.23S
DUBOIS         CLEAR     46  41  82 E5        30.22R
CLEARFIELD     CLEAR     45  44  97 CALM      30.23S
JOHNSTOWN      CLEAR     50  46  86 CALM      30.20S
ALTOONA        CLEAR     49  46  90 CALM      30.21F
STATE COLLEGE  CLEAR     49  44  84 CALM      30.21F
WILLIAMSPORT   CLEAR     48  44  86 CALM      30.21S
SELINSGROVE    CLEAR     46  45  96 CALM      30.21F
FT INDIANTOWN  CLEAR     47  44  90 N1        30.19F
CAPITAL CITY   PTCLDY    50  45  83 SW3       30.20S
HARRISBURG     PTCLDY    54  47  77 N3        30.19S
YORK           CLEAR     45  45 100 CALM      30.19S
$$

PAZ038>040-043-044-047-048-054-055-060>062-067>071-250800-
EASTERN PENNSYLVANIA

CITY           SKY/WX    TMP DP  RH WIND       PRES   REMARKS
SCRANTON       CLEAR     45  42  89 E6        30.21R
MOUNT POCONO   CLEAR     40  37  89 CALM      30.19S
ALLENTOWN      CLEAR     48  40  73 NW3       30.19S
QUAKERTOWN*    SUNNY     45  43  93 CALM      30.19S
READING        CLEAR     51  43  74 N5        30.19R
LANCASTER      CLEAR     54  45  71 CALM      30.19R
COATESVILLE    SUNNY     54  43  66 N6        30.19S
POTTSTOWN      CLEAR     53  42  66 N7        30.20R
BLUE BELL      CLEAR     50  43  76 CALM      30.17S
DOYLESTOWN     CLEAR     52  44  74 CALM      30.17S
WILLOW GROVE   NOT AVBL
NORTH PHILA    CLEAR     56  43  61 N7        30.18S
PHILADELPHIA   CLEAR     59  42  53 N13       30.17S
$$



USA.gov is the U.S. government's official web portal to all federal, state and local government web resources and services.